Weather History for KAUG - November, 2012

Change the Weather History Date:

Thursday, November 29, 2012

  Actual Average Record
Temperature  
Mean Temperature 28 °F 33 °F  
Max Temperature 36 °F 40 °F 59 °F (2003)
Min Temperature 19 °F 26 °F 12 °F (1996)
Degree Days  
Heating Degree Days 38 32  
Month to date heating degree days 780  
Since 1 July heating degree days 1515  
Cooling Degree Days 0 0  
Month to date cooling degree days 0  
Year to date cooling degree days 388  
Moisture  
Dew Point 17 °F    
Average Humidity 63    
Maximum Humidity 93    
Minimum Humidity 38    
Precipitation  
Precipitation 0.00 in 0.13 in 0.54 in (2003)
Month to date precipitation 4.23  
Year to date precipitation 38.51  
Sea Level Pressure  
Sea Level Pressure 30.10 in    
Wind  
Wind Speed 6 mph (WNW)    
Max Wind Speed 20 mph    
Max Gust Speed 26 mph    
Visibility 9 miles    
Events Snow    
T = Trace of Precipitation, MM = Missing Value Source: NWS Daily Summary

Daily Weather History Graph

Daily Weather History Graph

Search for Another Location

Airport or City:

Trip Planner

Search our weather history database for the weather conditions in past years. The results will help you decide how hot, cold, wet, or windy it might be!

Date:

Astronomy

Nov. 29, 2012 Rise Set
Actual Time 6:53 AM EST 4:01 PM EST
Civil Twilight 6:20 AM EST 4:34 PM EST
Nautical Twilight 5:44 AM EST 5:10 PM EST
Astronomical Twilight 5:09 AM EST 5:45 PM EST
Moon 5:01 PM EST (11/29) 7:37 AM EST (11/29)
Length of Visible Light 10h 13m
Length of Day
9h 08m
Full, 99% of the Moon is Illuminated
Nov 29
Full
Dec 6
Last Quarter
Dec 13
New
Dec 20
First Quarter
Dec 28
Full

Hourly Weather History & Observations

Time (EST) Temp. Windchill Dew Point Humidity Pressure Visibility Wind Dir Wind Speed Gust Speed Precip Events Conditions
12:53 AM 21.0 °F - 17.1 °F 85% 30.08 in 10.0 mi Calm Calm - N/A   Clear
1:53 AM 21.9 °F - 17.1 °F 82% 30.08 in 10.0 mi Calm Calm - N/A   Clear
2:53 AM 19.9 °F - 16.0 °F 85% 30.08 in 10.0 mi Calm Calm - N/A   Clear
3:53 AM 21.0 °F - 17.1 °F 85% 30.09 in 10.0 mi Calm Calm - N/A   Clear
4:53 AM 21.9 °F 14.5 °F 18.0 °F 85% 30.10 in 10.0 mi WNW 5.8 mph - N/A   Clear
5:53 AM 25.0 °F 16.3 °F 17.1 °F 72% 30.12 in 10.0 mi West 8.1 mph - N/A   Clear
6:53 AM 24.8 °F 16.1 °F 14.0 °F 64% 30.12 in 10.0 mi WNW 8.1 mph - N/A   Clear
7:53 AM 26.1 °F 14.0 °F 10.9 °F 53% 30.16 in 10.0 mi WNW 15.0 mph 23.0 mph N/A   Clear
8:53 AM 28.0 °F 16.5 °F 10.0 °F 47% 30.17 in 10.0 mi West 15.0 mph 24.2 mph N/A   Clear
9:53 AM 30.0 °F 17.9 °F 9.0 °F 41% 30.16 in 10.0 mi WNW 18.4 mph 26.5 mph N/A   Clear
10:53 AM 32.0 °F 24.2 °F 10.0 °F 40% 30.15 in 10.0 mi WNW 9.2 mph - N/A   Partly Cloudy
11:53 AM 32.0 °F 24.8 °F 10.0 °F 40% 30.14 in 10.0 mi WNW 8.1 mph - N/A   Scattered Clouds
12:53 PM 34.0 °F 27.2 °F 10.9 °F 38% 30.10 in 10.0 mi West 8.1 mph - N/A   Mostly Cloudy
1:53 PM 34.0 °F 28.8 °F 12.0 °F 40% 30.07 in 10.0 mi Variable 5.8 mph - N/A   Overcast
2:53 PM 36.0 °F 31.1 °F 12.9 °F 39% 30.04 in 10.0 mi Variable 5.8 mph 18.4 mph N/A   Overcast
3:53 PM 35.1 °F 31.0 °F 14.0 °F 42% 30.04 in 10.0 mi South 4.6 mph - N/A   Overcast
4:53 PM 36.0 °F 29.0 °F 19.0 °F 50% 30.03 in 10.0 mi SW 9.2 mph - N/A   Overcast
5:53 PM 36.0 °F 29.0 °F 19.9 °F 52% 30.04 in 10.0 mi SW 9.2 mph 17.3 mph N/A   Overcast
6:53 PM 35.1 °F 30.1 °F 24.1 °F 64% 30.06 in 9.0 mi Variable 5.8 mph - 0.00 in Snow Light Snow
7:53 PM 34.0 °F 24.2 °F 26.1 °F 73% 30.08 in 6.0 mi NNW 15.0 mph 20.7 mph 0.00 in Snow Light Snow
8:01 PM 32.0 °F 20.1 °F 26.6 °F 80% 30.08 in 1.8 mi North 19.6 mph 24.2 mph 0.00 in Snow Light Snow
8:08 PM 30.2 °F 20.2 °F 28.4 °F 93% 30.08 in 2.0 mi NNW 12.7 mph 24.2 mph 0.00 in Snow Light Snow
8:11 PM 30.2 °F 21.9 °F 26.6 °F 86% 30.09 in 3.0 mi NW 9.2 mph - 0.00 in Snow Light Snow
8:53 PM 32.0 °F 22.5 °F 23.0 °F 69% 30.13 in 10.0 mi NW 12.7 mph 20.7 mph 0.00 in   Overcast
9:53 PM 30.0 °F 21.7 °F 17.1 °F 59% 30.15 in 10.0 mi NW 9.2 mph 21.9 mph N/A   Overcast
10:53 PM 28.9 °F 19.8 °F 17.1 °F 61% 30.17 in 10.0 mi WNW 10.4 mph 18.4 mph N/A   Overcast
11:53 PM 28.0 °F 19.3 °F 18.0 °F 66% 30.19 in 10.0 mi WNW 9.2 mph - N/A   Overcast